CAPE
0 0 0 0 0 0 0 0 0 0 0 0 0 0 0 0 0 0 0 0 0 0 0 0 2 32 2 154 436 93 14 705 1033 1119 777 948 883 802 738 716 950 1210 1374 1606 2111 2270 2399 2607 2879 3018 2913 2711 2635 2612 2560 2478 2309 2632 3047 3387 3616 3849 3889 3715 3467 3364 3332 3366 3454 3449 3320 3144 2965 2840 2791 2697 2728 3015 3068 2977 2792 2615 2481 2345 2188 2008 1833
0 0 0 0 0 0 0 0 0 0 0 0 0 0 0 0 0 0 0 0 0 0 0 0 0 62 277 480 535 317 27 69 1541 1490 1441 1048 950 857 642 888 1219 1381 1385 1432 1575 1722 2071 2329 2479 3009 3115 2952 2787 2728 2653 2573 2443 2509 2945 3291 3452 3645 3774 3658 3435 3352 3335 3384 3486 3548 3520 3373 3202 3070 2944 2821 2816 3113 3234 3134 2996 2816 2648 2531 2399 2253 2118
0 0 0 0 0 0 0 0 0 0 0 0 0 0 0 0 0 0 0 0 0 0 0 0 0 2 10 0 11 245 363 905 2354 1460 1511 1794 1667 1977 1972 1220 1526 1534 1462 1470 1800 2351 2655 2830 2832 2967 3208 3178 2984 2805 2721 2630 2519 2452 2849 3186 3296 3434 3592 3560 3413 3369 3405 3418 3467 3531 3594 3556 3395 3262 3175 3029 2936 3123 3383 3362 3211 3037 2878 2777 2667 2559 2460
0 0 0 0 0 0 0 0 0 0 0 0 0 0 0 0 0 0 0 0 0 0 0 0 0 14 10 19 25 35 236 418 2368 2252 2082 2569 2394 2750 2719 2082 1972 2193 2837 2673 2822 3263 3419 3252 3137 3210 3373 3336 3205 3092 2850 2730 2616 2477 2820 3070 3171 3286 3547 3619 3579 3568 3546 3536 3501 3506 3585 3648 3555 3378 3283 3241 3158 3208 3388 3484 3460 3342 3165 3014 2906 2839 2730
0 0 0 0 0 0 0 0 0 0 0 0 0 0 0 0 0 0 0 0 0 0 0 0 0 0 0 8 50 41 16 4 0 996 2314 2809 2729 2824 2803 2489 2295 2646 3565 3768 3472 3648 3798 3653 3443 3387 3514 3496 3396 3220 3096 2947 2767 2613 2740 2985 3057 3175 3565 3798 3863 3836 3774 3702 3624 3566 3582 3691 3715 3581 3454 3497 3540 3551 3576 3503 3465 3434 3375 3293 3187 3037 2909
0 0 0 2 2 2 0 0 0 0 0 0 0 0 0 0 0 0 0 0 0 84 42 0 0 0 0 0 1 3 0 19 29 57 146 694 2322 2514 2666 2507 2560 2934 3836 4311 4200 3944 3895 3818 3583 3515 3563 3617 3486 3349 3222 3075 2927 2778 2642 2880 2976 3110 3557 3886 4026 4081 4021 3935 3857 3747 3703 3765 3927 3949 3776 3738 3894 3809 3768 3695 3570 3504 3460 3384 3294 3191 3101
0 1 2 5 0 0 0 0 0 0 0 0 0 0 0 0 0 0 0 2 104 31 6 6 0 0 14 196 134 1 138 100 649 463 424 535 400 438 2496 2704 2590 2599 3007 3724 4188 4222 4082 3841 3644 3452 3547 3631 3585 3419 3302 3184 3026 2903 2747 2831 2890 3070 3536 3919 4150 4242 4242 4195 4166 4076 4002 4052 4240 4281 4127 4043 4130 4042 3870 3824 3725 3606 3503 3405 3325 3223 3119
0 6 30 22 0 0 0 0 0 0 0 0 0 0 0 0 0 242 251 197 354 109 63 133 54 8 0 0 0 0 0 38 218 218 95 28 211 1183 1525 2618 2680 2503 2497 3021 3620 3936 4014 3976 3694 3517 3557 3636 3659 3535 3364 3241 3105 2952 2800 2967 2937 3073 3535 3989 4287 4416 4464 4472 4524 4469 4358 4412 4532 4519 4395 4266 4227 4116 3940 3810 3715 3587 3448 3275 3272 3181 3072
0 0 12 1 0 0 0 0 0 0 100 118 1 41 215 670 539 514 496 477 532 859 516 279 264 280 137 50 2 0 0 0 0 0 0 0 0 0 751 2019 2372 2480 2508 2715 3310 3691 3903 3898 3833 3747 3684 3732 3789 3681 3618 3612 3199 3006 3324 3302 3140 3173 3597 4127 4489 4658 4698 4787 4802 4757 4638 4576 4606 4616 4529 4396 4258 4116 3985 3870 3762 3640 3495 3337 3283 3235 3150
0 0 4 1 0 0 0 0 0 0 20 0 0 72 376 1887 996 886 822 948 1348 1397 1224 599 156 13 18 100 34 327 542 522 0 0 0 0 0 0 260 1987 2480 3065 3222 3151 3360 3591 3766 3892 3960 3898 3854 3890 3902 3810 3766 3841 3580 3106 3847 3774 3459 3411 3800 4355 4760 4918 4963 4973 4919 4882 4763 4658 4574 4563 4528 4414 4300 4178 4046 3932 3830 3698 3459 3197 3219 3176 3128
0 0 0 0 0 0 0 121 0 29 28 0 0 1 522 1878 1602 980 977 1347 1370 1495 1490 1113 756 202 280 484 799 1064 963 870 644 15 0 0 0 0 0 702 2404 2938 3112 3299 3393 3724 3832 3979 4013 3983 3974 3995 4002 3912 3864 3966 3812 3602 4024 4135 3862 3776 4115 4707 5041 5134 5118 5048 4949 4890 4807 4682 4555 4456 4360 4288 4210 4080 3940 3809 3688 3491 3240 3124 3115 3083 3021
105 82 0 0 0 10 7 34 56 36 189 34 6 4 321 885 1460 878 1198 1363 1400 1450 1488 1571 1441 1486 1477 1364 1128 996 978 953 797 694 550 389 447 560 6 0 246 2250 2979 2766 2875 3592 4033 4044 4088 4068 4042 3989 3993 3976 3956 4042 3929 3824 4095 4300 4194 4126 4535 5055 5217 5201 5144 5044 4951 4837 4708 4612 4470 4346 4204 4085 3947 3863 3765 3699 3585 3349 3101 2926 2826 2777 2732
79 78 75 0 0 349 267 407 212 208 245 288 2 1 1002 1489 1199 1459 1393 1306 1367 1298 1375 1409 1434 1276 1252 1191 1040 2226 2823 2887 2439 1488 1022 1451 822 2339 2805 1457 492 3 2328 3111 3480 3812 4252 4187 4120 4098 4045 3958 3947 3984 4057 4102 4026 3978 4198 4472 4471 4560 5019 5217 5241 5165 5118 5006 4864 4700 4529 4424 4282 4160 4021 3887 3791 3704 3608 3462 3239 2886 2681 2512 2447 2468 2462
38 33 87 73 99 470 569 298 291 219 134 13 44 995 1069 1212 1156 1178 1331 1561 1665 1780 1842 1821 1912 1723 1863 2351 2539 2507 2752 2903 3004 2627 2638 3330 3549 4529 4718 4544 4505 3866 881 1822 3557 4109 4476 4315 4148 4136 4099 4000 3946 4028 4139 4191 4131 4114 4522 4818 4852 5053 5226 5222 5157 5094 5020 4920 4744 4510 4330 4214 4074 3994 3873 3737 3601 3471 3344 3109 2795 2710 2601 2392 2254 2224 2124
10 44 83 246 28 195 140 365 149 295 151 794 956 935 824 644 911 1403 1894 2192 2288 2409 2408 2374 2254 2158 2257 2287 2138 2084 2767 2751 3062 3201 2831 2728 2735 3325 3173 3298 3445 3756 4660 3461 3647 4471 4623 4483 4269 4288 4240 4137 4088 4228 4374 4372 4304 4677 5136 5185 5213 5252 5210 5108 5046 4984 4858 4707 4489 4296 4166 3990 3869 3733 3477 3239 3090 3036 2936 2829 2726 2638 2486 2242 2054 1913 1664
121 12 6 34 48 12 27 30 660 786 984 838 1138 814 735 593 1083 1664 1966 2044 2201 2315 2260 2097 1931 1796 1818 1792 1606 1826 2027 2219 2783 3725 3094 2896 2605 2898 3101 3162 2899 3198 3876 4414 4812 4744 4868 4714 4609 4571 4461 4383 4492 4614 4702 4551 4879 5281 5362 5312 5258 5200 5090 5005 4937 4854 4704 4540 4290 4090 3934 3741 3434 3041 2896 2829 2778 2727 2673 2562 2432 2264 2015 1833 1698 1464 1302
143 235 401 576 748 794 693 876 792 657 662 561 641 885 1305 1544 1584 1610 1689 1733 1690 1796 1837 1466 1365 1416 1457 1524 1549 1675 1774 1929 2336 3561 3637 3435 3070 2724 2862 2821 2865 2599 2751 3249 4344 3806 4481 5037 5022 4891 4821 4692 4781 4860 4901 4989 5268 5409 5372 5225 5181 5137 5040 4952 4854 4659 4440 4274 4110 3881 3672 3086 2806 2733 2618 2482 2348 2236 2152 2090 2027 1869 1732 1570 1392 1175 993
446 294 321 318 380 530 740 643 654 546 533 785 1362 1356 1247 1139 1036 962 967 1077 1267 1309 1214 1112 1263 1318 1436 1473 1595 1616 1667 1740 1924 2257 3460 3654 3311 3193 3047 2688 2659 2602 2652 2700 2781 3156 3544 5130 5140 5037 4964 4822 4916 5067 5120 5174 5288 5353 5278 5164 5061 5040 4900 4744 4524 4291 4109 3948 3764 3501 3054 2931 2751 2669 2539 2254 2115 2010 1932 1824 1631 1437 1265 1136 959 846 734
82 279 458 210 189 455 617 474 377 503 551 764 791 755 626 468 422 610 751 786 856 894 878 979 1092 1245 1331 1537 1592 1762 1775 1891 1902 2009 2132 2588 3101 2806 2804 2619 2641 2882 2515 2359 2239 2990 3979 4406 5182 5316 5149 4906 4997 5084 5092 5114 5216 5242 5171 5075 4922 4758 4516 4314 4166 4019 3866 3727 3394 3143 3027 2854 2657 2384 2083 2022 1964 1784 1544 1186 921 900 860 826 705 603 923
480 320 160 280 191 68 363 396 583 627 577 530 484 509 521 405 55 286 511 515 368 369 363 688 832 992 1239 1383 1421 1601 1771 1928 2095 2027 1983 2009 2035 2009 2098 2326 2608 2708 2534 2551 3013 3296 3480 4098 4921 5127 4881 4692 4522 4950 5049 4988 5038 5071 4964 4734 4524 4289 4230 4053 3922 3803 3620 3272 3044 2886 2608 2522 2273 2138 2029 1885 1674 1445 1130 954 897 926 869 746 730 856 1173
534 484 240 286 202 89 81 387 551 524 438 42 416 506 424 0 0 0 0 0 0 0 75 501 602 720 840 1053 1226 1355 1504 1805 2129 2196 2104 2138 2198 2103 1998 2238 2423 2636 2249 3098 3399 3220 3188 3578 4195 4399 4246 4026 4062 4273 4523 4650 4609 4585 4507 4016 4027 3836 3755 3542 3269 3186 3082 2941 2717 2505 2332 2237 2057 1927 1756 1576 1348 1114 816 890 1034 1040 1012 917 941 1045 1142
144 108 301 318 94 20 100 437 495 450 0 0 100 0 0 0 0 0 0 0 0 0 0 206 509 523 700 836 924 1011 1129 1241 1382 1709 2051 2092 1973 2202 2220 2258 2559 2292 2328 3118 3069 2846 3187 3481 3534 3589 3596 3537 3345 3857 3958 3847 3909 3501 3795 3675 3265 3143 3162 3166 2977 2882 2713 2525 2322 2267 2164 2084 1910 1665 1334 1179 1066 919 921 1060 1161 1192 1262 1252 1211 1121 1072
240 462 167 236 147 210 260 344 360 358 182 0 0 0 0 0 0 0 0 0 22 0 159 482 483 505 534 682 736 802 804 842 916 1026 1103 1303 1497 1863 2169 2230 2507 2236 2313 2854 3062 3270 3211 2873 2892 2853 3215 3334 2936 2895 2934 3130 3233 3408 3058 2523 2400 2622 2638 2561 2348 2154 2111 2136 2121 2068 1927 1782 1612 1316 1177 1083 1055 947 1028 1139 1230 1238 1201 1205 1124 1074 1024
388 425 424 229 57 51 331 341 348 199 0 0 0 0 0 0 0 0 0 270 378 427 506 546 563 537 514 558 589 522 582 644 730 873 1052 1100 1105 1140 1143 1460 1806 1752 1740 2122 1917 1974 2006 2114 1983 2090 2064 2077 1695 2053 1734 1667 1660 1975 2249 1873 1706 1818 1866 1865 1805 1732 1725 1702 1664 1630 1507 1387 1277 1104 1114 1138 1132 1048 1039 1096 1168 1173 1178 1130 1065 969 1056
340 452 227 16 34 58 63 79 44 0 0 0 0 0 0 0 0 0 0 0 0 199 577 624 590 544 643 673 617 529 483 402 418 522 556 660 938 1196 1166 1185 1143 1025 902 798 773 1047 1217 1551 1744 1969 1459 1652 1784 1421 1870 1541 1643 1460 1298 1306 1346 1377 1344 1253 1221 1223 1242 1281 1315 1349 1379 1317 1141 997 1053 1082 1094 1064 1128 1112 1098 1054 1062 1027 971 865 1021
394 180 124 29 102 37 24 18 23 28 12 2 0 0 0 0 0 0 0 0 0 0 0 0 91 175 430 431 475 530 529 513 534 643 689 660 813 1202 1594 1641 1459 1242 1263 1140 1428 1430 1293 1564 1580 2037 2018 1886 1898 1783 1807 1607 1394 1286 1313 1310 1288 1216 1158 1130 1210 1172 1072 1053 1064 1102 1296 1389 1305 1195 1001 934 971 1008 1023 1029 977 936 904 917 902 842 735
242 136 40 12 37 33 0 159 118 0 0 0 0 0 0 0 0 0 0 0 0 0 0 0 0 0 0 0 0 0 165 316 622 670 713 896 976 1031 1134 1215 1461 1568 1698 1704 1881 1911 1774 1668 1661 1881 1862 2059 2146 2330 2462 2360 2113 1616 1289 1228 1221 1698 1803 1561 1227 1214 1165 1147 1063 975 1022 1252 1215 1126 1166 1071 1007 982 954 953 943 903 828 778 771 752 666
40 10 53 50 53 1 93 14 0 0 0 0 0 0 0 0 0 0 0 0 0 0 0 0 0 0 0 0 0 0 0 91 343 509 570 588 771 992 1111 1039 1359 1460 1684 1888 1915 1899 1937 1997 2139 2209 2277 2328 2326 2127 2053 2005 1831 1515 1264 1161 1323 1544 1733 1595 1232 1236 1151 1092 1028 945 931 1023 1152 1212 1235 1200 1079 986 921 879 810 716 636 628 631 606 605
4 1 0 5 9 19 13 16 2 0 0 0 0 0 0 0 0 0 0 0 0 0 0 0 0 0 0 0 0 0 0 0 26 41 98 192 592 823 1045 1149 1067 1135 1289 1377 1561 1761 1848 1967 2046 2150 2224 2336 2368 2168 1992 1849 1601 1380 1240 1166 1450 1494 1376 1254 1193 1167 1105 1006 994 973 916 826 920 1014 1056 1072 1007 914 838 795 740 676 635 601 588 597 602
24 1 2 2 15 17 33 33 6 0 0 0 0 0 0 0 0 0 0 0 0 0 0 0 0 0 0 0 0 0 0 0 29 65 0 0 0 66 603 888 1113 1117 1099 1087 1222 1334 1373 1490 1568 1650 1691 1899 1934 2062 1908 1279 1066 1097 1142 1200 1286 1335 1283 1280 1253 1083 938 875 958 1024 1064 1006 991 1011 919 852 791 765 775 732 619 573 579 632 660 662 645
7 11 1 0 0 1 0 0 0 0 1 2 0 0 0 0 0 0 0 0 0 1 3 1 1 2 3 2 1 3 23 2 0 0 0 0 0 0 0 0 249 362 766 1022 1014 1008 1054 1155 1149 1312 1354 1580 1824 1868 1902 1669 1452 1255 1068 1044 1181 1280 1266 1165 1035 1040 1008 950 906 965 1044 999 1075 1044 956 936 839 790 613 232 0 0 0 349 596 630 623
26 2 2 5 2 0 0 0 0 0 2 6 0 0 2 4 0 0 0 1 1 3 4 5 1 3 3 2 1 4 2 0 0 0 0 0 0 0 0 0 4 15 2 4 484 771 794 932 1010 1059 1319 1256 1620 1866 1726 1467 1557 1212 1108 1015 931 876 1064 1069 1026 1098 1102 1000 887 827 964 899 965 987 881 796 780 680 254 0 0 0 0 0 0 0 448
7 10 7 4 2 0 1 0 0 0 1 2 13 9 10 4 2 0 0 2 3 7 8 7 5 3 6 2 2 7 11 6 2 0 0 0 0 0 0 16 15 12 6 21 2 0 115 625 807 1095 1008 906 1188 1317 1586 1548 1226 945 888 851 776 729 683 632 764 822 1060 1057 894 898 920 870 751 783 851 693 681 569 0 0 0 0 0 0 0 0 0
32 0 0 0 0 0 0 0 0 1 0 7 14 15 10 3 1 2 3 3 4 8 10 8 4 4 1 1 2 0 2 6 2 0 0 0 0 3 2 2 3 26 39 124 59 0 3 101 608 850 879 919 890 940 1112 1091 1222 777 762 798 754 678 673 604 550 340 719 872 758 778 604 454 310 306 220 150 66 21 8 58 51 0 0 0 0 0 0
30 3 0 0 0 0 0 0 0 0 0 0 0 1 2 2 4 7 6 5 5 2 2 2 3 5 3 0 0 0 0 0 0 4 2 0 0 0 2 1 0 16 49 51 29 25 31 340 577 964 867 836 889 787 887 799 766 680 653 723 757 811 769 912 879 552 558 776 633 387 93 37 57 541 569 56 17 3 0 2 142 116 0 0 0 0 0
2 0 0 0 0 0 0 0 0 1 1 0 0 0 0 0 0 0 0 2 3 2 0 0 0 0 0 0 0 1 0 0 0 0 2 1 0 2 2 3 0 86 174 122 284 501 506 342 1263 828 852 618 658 1083 957 744 966 889 1081 616 593 573 649 871 897 709 668 602 662 538 492 525 417 88 393 278 218 153 83 1 0 87 0 0 0 0 0
28 20 0 7 2 0 2 8 6 6 4 4 3 0 0 0 1 1 2 0 0 0 0 0 0 0 0 0 0 0 0 3 3 3 1 7 54 98 54 89 112 205 170 59 36 395 469 493 805 882 963 634 624 678 1260 1124 682 765 667 667 586 522 454 569 803 968 942 805 456 522 432 502 457 65 0 2 0 7 35 0 9 0 0 0 0 0 0
0 18 24 21 20 21 12 6 6 4 2 2 2 19 23 2 1 4 2 1 4 12 15 9 12 12 18 31 16 11 12 22 28 47 105 83 66 64 63 89 81 76 62 80 193 341 281 696 743 731 536 665 562 394 683 1369 1574 851 706 497 467 533 489 508 638 686 698 610 509 386 282 308 296 270 177 0 27 8 10 0 0 0 0 0 0 0 0
52 37 26 19 30 28 19 16 11 2 0 11 31 49 64 68 48 26 21 26 48 68 39 56 50 48 52 42 35 32 48 66 74 78 138 166 128 61 43 67 115 155 217 228 120 156 688 858 710 170 177 454 438 243 960 691 958 881 891 855 623 440 457 406 342 442 404 431 326 219 270 199 195 105 65 72 27 1 1 1 0 0 0 0 0 0 0
21 25 32 18 15 22 27 20 19 27 23 31 59 59 66 82 82 87 83 80 84 109 84 80 53 50 48 45 43 46 44 56 89 119 99 86 89 73 54 39 61 137 234 217 154 196 391 463 365 154 136 214 294 352 610 967 823 505 502 482 486 564 477 400 466 427 442 411 174 139 101 129 172 0 0 0 0 0 0 0 0 0 0 0 24 13 0
53 55 54 55 45 41 39 28 27 39 47 56 70 78 82 82 89 84 86 109 142 136 80 60 46 55 57 57 60 72 53 72 120 127 113 104 105 81 48 22 40 58 78 224 261 378 453 333 384 195 124 191 227 538 290 371 407 381 384 312 376 356 303 230 241 239 229 189 137 90 56 48 15 0 0 0 0 0 0 22 8 3 32 23 10 13 13
67 112 128 96 68 60 52 31 30 54 53 53 76 57 54 73 109 107 106 117 132 124 134 168 256 140 106 84 86 95 68 62 84 118 118 109 112 130 95 53 87 64 166 234 205 211 181 222 250 526 250 171 149 180 264 232 194 196 56 8 163 196 231 198 180 169 49 0 1 20 28 8 0 0 0 30 28 31 42 34 22 0 0 0 52 37 31
48 77 89 86 65 26 16 18 1 0 0 0 4 28 78 95 127 113 95 43 22 97 187 127 200 217 142 78 30 41 111 91 95 126 144 136 115 128 143 159 177 184 208 314 271 157 166 147 163 192 334 475 485 162 423 137 106 73 78 87 65 72 106 102 46 22 73 4 0 0 0 10 40 40 49 45 3 8 2 0 0 0 0 0 0 19 32
30 30 47 65 69 86 31 2 0 0 0 44 128 66 34 26 32 65 98 85 42 40 16 70 248 188 151 95 105 121 82 91 116 133 116 109 77 61 140 148 134 190 170 178 70 56 34 15 81 140 189 306 544 283 88 47 24 65 102 91 70 42 57 50 106 117 123 47 0 0 0 24 2 0 0 0 0 13 6 0 0 0 0 0 0 5 16
68 73 65 64 90 76 35 71 54 20 9 8 17 92 133 92 46 54 83 137 136 52 60 39 12 19 5 12 83 170 194 173 151 173 140 71 32 10 88 303 192 219 198 247 47 10 18 20 58 106 120 202 336 358 97 42 32 82 109 76 79 74 92 83 83 59 0 0 31 11 0 0 0 0 0 0 0 0 0 0 0 0 0 0 0 0 0
52 64 116 256 48 26 45 61 71 78 54 50 32 33 62 54 69 125 164 66 75 99 33 6 0 0 0 0 0 0 12 9 21 146 121 141 126 72 246 217 188 422 167 156 57 95 119 103 34 10 8 285 190 15 23 59 114 48 9 11 21 0 57 35 0 0 1 2 1 2 1 1 0 0 0 0 0 0 0 0 0 0 0 0 0 0 0
87 81 71 80 115 120 115 98 71 38 65 87 71 39 59 91 52 38 28 56 75 12 37 71 71 50 23 8 3 0 0 0 0 0 17 11 19 134 220 57 170 166 352 83 76 34 137 86 53 1 3 155 62 0 0 3 72 90 52 13 2 1 0 14 0 0 0 0 1 0 1 1 1 0 0 0 0 0 0 0 0 0 0 0 0 0 0
61 47 67 96 109 122 99 65 50 34 26 66 77 30 39 163 134 79 50 5 5 5 3 1 10 13 7 0 0 11 4 0 0 0 0 0 0 1 13 5 90 32 286 457 284 366 176 8 24 2 72 183 6 0 0 0 0 16 25 89 66 22 0 3 15 1 0 0 1 0 2 5 4 2 1 0 0 0 0 0 0 0 0 0 0 0 0
99 126 85 78 91 92 90 72 68 98 59 75 112 54 55 78 68 2 3 2 18 8 1 0 2 5 12 59 60 5 14 5 0 0 1 0 0 0 1 26 114 65 6 8 145 120 367 32 0 38 162 207 9 13 2 0 1 5 0 4 28 33 5 3 1 2 27 1 0 1 0 0 0 0 0 0 0 0 0 0 0 0 0 0 0 0 0
236 192 133 14 2 28 38 30 36 96 96 52 4 62 50 6 43 21 10 2 29 44 2 3 0 0 4 3 0 6 4 10 12 5 0 0 1 3 3 2 58 63 107 13 13 59 167 217 272 328 173 16 12 13 7 4 0 0 0 0 0 0 0 0 0 0 0 0 1 0 0 0 0 0 0 0 0 0 0 0 0 0 0 0 0 0 0
160 149 121 112 91 118 54 23 47 92 83 120 0 55 50 20 41 14 3 18 12 21 3 2 2 7 0 0 0 0 0 0 13 82 0 0 1 27 9 8 4 54 25 4 1 3 8 34 66 60 28 21 0 0 0 7 3 0 1 0 0 0 0 0 0 0 0 0 1 0 0 0 0 0 0 0 0 0 0 0 0 0 0 0 0 0 0
61 41 29 11 1 2 0 0 0 0 18 39 0 1 8 6 9 22 41 149 23 6 2 1 1 0 0 0 0 0 1 5 0 0 5 0 0 0 0 0 0 0 0 0 0 0 0 4 85 76 48 5 2 10 45 52 23 3 0 0 3 2 4 1 0 0 0 0 0 0 0 1 0 0 0 2 2 0 0 0 0 0 0 0 0 0 0
Wind_Speed
nan nan nan nan nan nan nan nan nan nan nan nan nan nan nan nan nan nan nan nan nan nan nan nan nan nan nan 23 26 nan nan 33 33 30 27 27 24 23 22 22 25 26 27 29 31 33 32 29 27 27 26 25 25 25 25 22 19 17 17 16 13 13 14 14 14 12 10 9 9 9 8 8 8 9 10 11 12 14 16 18 18 21 23 25 27 28 30
nan nan nan nan nan nan nan nan nan nan nan nan nan nan nan nan nan nan nan nan nan nan nan nan nan nan 26 28 31 34 nan nan 34 35 33 30 24 24 23 23 26 30 32 33 33 33 33 31 26 25 25 25 26 28 27 26 22 19 19 16 14 14 15 16 15 14 12 11 9 8 8 8 9 10 11 12 13 13 15 18 20 23 25 28 30 32 34
nan nan nan nan nan nan nan nan nan nan nan nan nan nan nan nan nan nan nan nan nan nan nan nan nan nan nan nan nan 37 35 34 34 34 35 33 32 30 30 32 35 37 36 35 34 31 31 31 29 26 25 26 27 29 29 29 27 24 20 17 15 14 16 17 17 16 13 12 9 7 7 9 10 11 12 13 14 15 17 20 24 26 28 31 32 34 36
nan nan nan nan nan nan nan nan nan nan nan nan nan nan nan nan nan nan nan nan nan nan nan nan nan nan nan nan nan nan 32 29 33 38 36 35 36 37 37 35 37 38 37 38 37 32 29 31 32 30 28 28 29 29 30 31 29 27 23 19 17 15 16 17 19 18 14 13 9 6 7 10 12 13 14 15 16 18 21 24 26 28 30 32 34 35 36
nan nan nan nan nan nan nan nan nan nan nan nan nan nan nan nan nan nan nan nan nan nan nan nan nan nan nan nan nan nan nan nan nan 34 34 35 36 38 38 38 35 36 39 40 39 36 33 33 35 33 31 32 30 29 30 31 31 30 27 22 18 16 17 18 19 18 16 13 10 8 8 11 14 16 16 17 19 21 24 26 28 30 32 34 35 37 39
nan nan nan nan nan nan nan nan nan nan nan nan nan nan nan nan nan nan nan nan nan nan nan nan nan nan nan nan nan nan nan nan nan nan 34 34 36 36 37 38 40 40 42 43 42 42 41 38 37 35 35 33 31 31 32 34 34 31 30 26 22 18 18 18 19 19 17 13 10 10 11 14 16 17 18 19 21 23 26 28 31 32 34 36 38 40 41
nan nan nan nan nan nan nan nan nan nan nan nan nan nan nan nan nan nan nan nan 26 nan nan nan nan nan nan 40 45 nan 42 38 38 37 37 33 35 38 38 37 37 38 38 41 42 41 38 36 34 37 36 34 35 36 36 36 34 31 30 30 26 22 20 19 18 18 17 15 13 13 15 17 18 18 20 21 24 26 28 30 32 34 36 38 40 42 43
nan nan nan nan nan nan nan nan nan nan nan nan nan nan nan nan nan 36 31 31 30 30 nan 43 nan nan nan nan nan nan nan nan 46 44 nan nan 36 35 36 37 35 33 34 37 38 35 33 31 33 36 36 37 40 39 37 36 35 32 31 31 28 25 22 20 19 17 18 17 17 17 19 20 20 22 23 25 27 28 30 32 34 36 37 40 42 43 44
nan nan nan nan nan nan nan nan nan nan nan 48 nan nan 50 53 51 47 41 42 39 38 39 43 45 45 46 nan nan nan nan nan nan nan nan nan nan nan 36 36 35 33 35 37 34 34 34 33 35 36 38 40 42 42 38 36 36 34 33 31 30 28 24 21 20 19 18 19 20 20 21 22 23 26 27 28 30 31 34 36 38 39 40 41 43 46 46
nan nan nan nan nan nan nan nan nan nan nan nan nan nan 52 58 55 52 51 52 50 45 42 44 44 nan nan 43 nan 41 52 54 nan nan nan nan nan nan 40 39 40 42 43 42 40 38 36 35 34 37 41 43 43 42 38 37 37 36 34 32 32 31 26 24 24 22 21 22 22 22 23 24 27 29 30 31 33 34 38 40 41 42 44 46 46 47 48
nan nan nan nan nan nan nan 51 nan nan nan nan nan nan 49 51 54 58 60 61 58 51 48 46 49 50 47 41 37 39 45 48 52 nan nan nan nan nan nan 42 41 42 44 44 44 42 39 34 33 36 40 42 43 40 38 37 36 36 34 34 34 34 31 28 28 27 25 24 25 26 27 29 31 34 34 34 35 37 40 43 44 46 48 49 49 49 50
42 nan nan nan nan nan nan nan nan nan 53 nan nan nan 45 46 51 58 63 66 62 58 55 51 57 56 52 48 43 42 44 44 42 45 45 45 52 57 nan nan 47 44 45 48 50 49 42 33 32 34 35 37 36 35 36 38 37 34 34 35 37 38 37 34 32 31 29 28 28 29 31 34 36 37 37 38 39 41 42 45 47 49 51 53 53 52 54
nan nan nan nan nan 52 53 50 48 48 54 57 nan nan 48 49 56 58 62 61 59 58 57 54 55 52 52 48 46 47 49 49 42 37 37 37 37 44 56 61 59 nan 49 48 54 55 50 41 38 37 37 37 36 37 40 43 40 36 37 40 43 44 41 37 36 34 32 31 32 32 34 38 40 40 41 43 44 45 46 48 50 52 55 55 55 56 59
nan nan nan nan nan 47 49 45 47 47 49 nan nan 52 52 58 59 58 57 57 56 55 57 54 52 54 60 60 57 55 55 53 49 48 46 45 43 41 45 59 71 69 60 54 53 57 56 52 50 51 49 45 44 46 48 46 42 43 46 45 46 48 43 39 38 37 35 34 34 35 38 41 42 43 45 48 48 49 49 51 53 55 57 58 57 59 62
nan nan nan 45 nan 44 44 42 44 49 45 45 49 53 58 58 60 61 59 55 52 51 52 54 53 57 64 65 61 58 56 56 54 52 54 55 52 44 42 43 57 73 75 65 57 56 59 58 57 56 55 51 48 48 47 46 48 51 51 49 48 48 45 41 40 39 36 36 36 37 41 43 45 47 48 50 50 51 52 53 55 58 58 56 55 57 58
55 nan nan nan nan nan nan nan 41 45 50 45 50 55 57 59 58 58 55 52 50 49 49 49 51 56 62 66 65 61 60 58 57 59 62 59 55 54 52 50 54 68 78 80 70 62 65 65 63 60 57 57 55 49 46 52 54 53 52 51 50 49 46 43 43 41 38 38 40 42 45 46 47 49 50 51 51 50 51 53 56 57 54 52 53 55 55
57 54 55 55 55 43 46 46 45 49 54 55 53 56 58 58 58 56 54 50 51 52 50 52 52 51 55 59 63 62 60 60 58 59 61 62 58 55 53 50 49 57 71 87 93 80 71 70 68 62 56 54 54 51 49 53 55 53 53 53 52 50 48 46 45 42 40 41 44 47 47 48 49 50 52 52 51 50 54 55 56 55 51 50 52 54 55
60 58 51 52 50 49 52 47 47 51 56 60 61 59 58 58 56 55 53 51 53 54 53 54 53 52 50 53 56 59 62 62 62 61 65 68 67 64 61 59 56 60 63 73 78 70 64 67 68 63 57 51 51 51 51 55 55 53 54 56 54 52 50 48 46 44 44 47 49 50 50 50 51 51 52 51 52 53 55 56 56 54 52 51 51 53 56
nan 61 64 52 49 61 68 66 65 63 64 64 61 60 58 56 55 54 54 54 55 56 57 57 54 54 52 51 51 54 58 61 62 62 64 67 69 69 65 61 57 59 63 67 72 62 58 59 61 62 61 58 57 56 55 56 56 55 55 58 58 55 52 49 47 46 47 48 50 51 52 52 51 52 52 53 54 55 55 55 55 53 53 53 53 54 58
64 57 55 48 47 nan 69 70 67 65 66 69 66 58 53 52 nan 51 50 53 56 55 58 56 57 58 57 57 56 56 57 58 58 58 60 61 64 68 68 65 61 58 62 68 73 70 59 51 58 67 68 63 59 59 59 57 56 55 56 58 58 54 52 49 48 48 49 52 52 50 50 51 52 52 53 53 54 55 55 55 54 53 53 53 55 58 61
63 63 51 45 49 nan nan 72 70 65 62 nan 63 58 54 nan nan nan nan nan nan nan nan 53 56 60 59 59 59 60 58 58 58 58 57 57 58 61 65 64 64 59 58 63 65 66 56 45 46 61 69 66 55 53 57 59 55 53 54 57 55 52 51 50 50 48 48 48 49 51 53 55 52 50 52 54 56 55 52 53 54 56 55 56 58 60 63
54 52 47 52 nan nan nan 67 62 61 nan nan nan nan nan nan nan nan nan nan nan nan nan 55 54 56 55 55 56 59 58 58 57 56 56 55 55 56 57 58 61 61 59 61 58 58 55 53 50 57 69 72 63 53 55 61 62 60 59 57 54 50 49 48 46 47 46 47 50 52 54 54 55 55 57 57 54 56 55 56 54 51 56 58 60 64 68
47 48 44 41 47 57 65 68 66 59 57 nan nan nan nan nan nan nan nan nan nan nan 54 52 53 54 54 54 53 56 57 59 59 58 55 53 52 53 53 56 57 57 56 57 59 59 59 55 52 53 62 69 65 55 51 53 58 56 53 49 45 45 46 44 44 46 47 49 51 52 53 54 56 58 58 59 61 62 59 54 54 58 61 66 69 70 69
47 43 37 41 nan nan 57 66 72 69 nan nan nan nan nan nan nan nan nan 47 49 50 51 51 50 50 53 53 54 54 57 59 60 58 55 52 48 46 48 50 48 48 55 60 63 63 59 53 50 51 56 61 62 57 49 45 44 41 39 37 36 41 44 44 46 47 48 50 52 53 53 55 56 57 59 60 60 62 60 54 54 56 58 60 63 68 64
44 39 35 nan nan nan nan nan nan nan nan nan nan nan nan nan nan nan nan nan nan 50 50 50 50 48 50 51 51 52 53 55 54 54 54 52 50 45 45 54 54 50 45 51 51 50 49 46 46 49 51 51 51 49 44 39 34 32 32 35 39 43 44 43 45 48 50 52 54 54 54 55 56 58 61 62 61 57 52 51 56 59 60 59 56 54 54
40 40 41 nan 52 nan nan nan nan nan nan nan nan nan nan nan nan nan nan nan nan nan nan nan nan 48 47 49 49 49 51 51 51 50 49 50 51 49 42 44 50 46 31 26 29 31 33 36 42 49 51 49 45 40 35 32 31 31 34 40 45 46 45 47 50 52 54 55 56 55 54 56 58 59 58 57 54 52 52 50 52 55 58 55 50 49 49
42 43 nan nan nan nan nan 47 45 nan nan nan nan nan nan nan nan nan nan nan nan nan nan nan nan nan nan nan nan nan 47 46 48 48 46 47 47 43 41 43 47 43 26 13 12 16 18 17 25 37 43 41 37 35 32 32 35 39 44 47 48 51 55 53 53 55 57 57 56 56 56 58 58 55 52 49 50 51 50 51 53 55 50 45 44 46 47
nan nan nan nan nan nan nan nan nan nan nan nan nan nan nan nan nan nan nan nan nan nan nan nan nan nan nan nan nan nan nan nan 46 45 46 44 40 38 38 40 43 46 43 40 37 34 33 31 29 32 38 39 37 36 36 37 39 43 46 47 48 50 53 56 57 57 57 57 57 58 58 56 52 48 46 48 49 49 49 51 54 53 47 43 43 44 49
nan nan nan nan nan nan nan nan nan nan nan nan nan nan nan nan nan nan nan nan nan nan nan nan nan nan nan nan nan nan nan nan nan nan nan 41 38 36 36 38 39 41 43 45 45 41 39 38 36 35 38 39 39 38 38 40 43 45 46 48 50 52 53 54 56 57 58 60 59 58 55 51 45 44 47 50 50 50 51 52 52 48 46 45 45 44 44
nan nan nan nan nan nan nan nan nan nan nan nan nan nan nan nan nan nan nan nan nan nan nan nan nan nan nan nan nan nan nan nan nan nan nan nan nan nan 37 36 39 40 39 39 37 36 38 38 36 36 36 38 40 39 42 43 46 46 47 48 50 51 51 53 56 58 60 60 57 55 49 46 45 47 50 52 51 51 51 51 48 45 44 43 43 45 45
nan nan nan nan nan nan nan nan nan nan nan nan nan nan nan nan nan nan nan nan nan nan nan nan nan nan nan nan nan nan nan nan nan nan nan nan nan nan nan nan 39 36 35 33 31 31 34 36 38 40 39 39 40 43 45 47 48 49 50 51 52 54 57 56 56 55 55 55 52 49 47 47 49 51 52 53 53 53 51 48 nan nan nan 43 42 43 44
nan nan nan nan nan nan nan nan nan nan nan nan nan nan nan nan nan nan nan nan nan nan nan nan nan nan nan nan nan nan nan nan nan nan nan nan nan nan nan nan nan nan nan nan 35 35 36 38 40 40 41 43 43 44 47 49 50 51 50 51 53 54 56 59 56 53 51 50 49 49 49 49 50 51 53 53 52 50 46 nan nan nan nan nan nan nan 43
nan nan nan nan nan nan nan nan nan nan nan nan nan nan nan nan nan nan nan nan nan nan nan nan nan nan nan nan nan nan nan nan nan nan nan nan nan nan nan nan nan nan nan nan nan nan 40 42 40 42 45 45 46 47 49 52 51 52 52 52 53 55 56 57 55 52 51 51 51 52 52 51 52 54 53 52 48 43 nan nan nan nan nan nan nan nan nan
nan nan nan nan nan nan nan nan nan nan nan nan nan nan nan nan nan nan nan nan nan nan nan nan nan nan nan nan nan nan nan nan nan nan nan nan nan nan nan nan nan nan nan 44 nan nan nan 43 42 43 45 45 47 49 52 54 54 55 55 54 52 53 55 54 54 53 53 53 54 54 54 53 53 53 51 48 nan nan nan nan nan nan nan nan nan nan nan
nan nan nan nan nan nan nan nan nan nan nan nan nan nan nan nan nan nan nan nan nan nan nan nan nan nan nan nan nan nan nan nan nan nan nan nan nan nan nan nan nan nan nan nan nan nan nan 46 46 46 48 47 49 48 53 55 53 50 49 50 49 51 53 54 56 58 59 57 55 56 nan nan nan 47 45 nan nan nan nan nan 41 42 nan nan nan nan nan
nan nan nan nan nan nan nan nan nan nan nan nan nan nan nan nan nan nan nan nan nan nan nan nan nan nan nan nan nan nan nan nan nan nan nan nan nan nan nan nan nan nan 42 43 43 41 42 40 42 47 47 46 46 48 50 52 51 49 48 49 50 54 58 59 60 60 60 58 56 52 49 46 43 nan 37 34 37 39 nan nan nan nan nan nan nan nan nan
nan nan nan nan nan nan nan nan nan nan nan nan nan nan nan nan nan nan nan nan nan nan nan nan nan nan nan nan nan nan nan nan nan nan nan nan nan nan nan nan 42 45 44 nan nan 38 38 38 42 48 47 45 46 45 44 49 50 51 55 55 54 55 57 56 54 53 52 50 49 47 45 39 35 nan nan nan nan nan nan nan nan nan nan nan nan nan nan
nan nan nan nan nan nan nan nan nan nan nan nan nan nan nan nan nan nan nan nan nan nan nan nan nan nan nan nan nan nan nan nan nan nan 36 nan nan nan nan nan nan nan nan nan 40 41 40 41 45 44 44 44 45 43 45 50 54 53 55 56 53 49 48 48 46 45 43 39 37 38 37 32 32 35 34 nan nan nan nan nan nan nan nan nan nan nan nan
nan nan nan nan nan nan nan nan nan nan nan nan nan nan nan nan nan nan nan nan nan nan nan nan nan nan nan nan nan nan nan nan nan nan 37 39 40 nan nan nan 38 38 38 37 38 40 43 42 38 38 38 37 37 38 38 42 48 47 48 48 47 44 40 39 39 38 35 31 30 30 34 33 32 32 nan nan nan nan nan nan nan nan nan nan nan nan nan
nan nan nan nan nan nan nan nan nan nan nan nan nan nan nan nan nan nan nan nan nan 27 nan nan nan nan nan nan nan nan nan nan nan 36 nan nan nan nan nan nan nan 36 37 39 37 38 42 43 39 36 35 35 36 37 38 43 43 41 42 41 39 36 33 33 32 30 29 29 31 34 35 35 33 nan nan nan nan nan nan nan nan nan nan nan nan nan nan
nan nan nan nan nan nan nan nan nan nan nan nan nan nan nan nan nan nan nan 21 21 23 nan nan nan nan nan nan nan nan nan nan 39 39 36 36 37 nan nan nan nan nan nan 38 39 39 41 41 38 37 37 37 34 35 35 38 37 35 34 34 34 32 31 32 32 31 29 31 33 nan nan nan nan nan nan nan nan nan nan nan nan nan nan nan nan nan nan
nan 5 5 nan nan nan nan nan nan nan nan nan nan nan nan nan 15 16 15 17 19 21 23 25 29 30 30 nan nan nan nan nan nan 37 37 38 37 36 nan nan nan nan 42 42 41 41 39 39 38 38 37 35 32 34 32 32 30 29 nan nan 31 33 31 32 33 31 nan nan nan nan nan nan nan nan nan nan nan nan nan nan nan nan nan nan nan nan nan
nan nan nan nan nan nan nan nan nan nan nan nan nan nan nan nan 12 12 nan nan nan nan 22 24 26 29 28 nan nan nan 32 nan nan 32 33 34 35 35 36 34 34 37 40 37 38 38 37 36 35 34 36 33 30 33 29 26 28 nan nan nan nan nan 30 29 nan nan nan nan nan nan nan nan nan nan nan nan nan nan nan nan nan nan nan nan nan nan nan
nan nan nan nan nan nan nan nan nan nan nan nan 10 nan nan nan nan nan nan nan nan nan nan nan 20 20 21 nan 23 24 nan nan 26 28 31 32 nan nan 30 31 29 33 39 34 nan nan nan nan nan 34 36 35 34 33 nan nan nan nan 31 nan nan nan nan nan 36 34 34 nan nan nan nan nan nan nan nan nan nan nan nan nan nan nan nan nan nan nan nan
nan nan nan nan nan nan nan nan nan nan nan nan nan nan 13 nan nan nan nan 16 16 nan nan nan nan nan nan nan nan 18 20 20 22 25 27 nan nan nan nan 26 26 25 30 33 nan nan nan nan nan 35 34 33 34 35 nan nan nan nan 31 nan nan nan nan nan nan nan nan nan nan nan nan nan nan nan nan nan nan nan nan nan nan nan nan nan nan nan nan
nan nan 5 6 nan nan nan nan nan nan nan nan nan nan nan nan nan 17 16 nan nan nan nan nan nan nan nan nan nan nan nan nan nan 22 23 22 23 nan 21 25 22 24 30 32 nan nan 29 34 nan nan nan 35 38 nan nan nan 33 nan nan nan nan nan nan nan nan nan nan nan nan nan nan nan nan nan nan nan nan nan nan nan nan nan nan nan nan nan nan
nan nan nan nan 10 11 11 nan nan nan nan nan nan nan nan nan nan nan nan nan nan nan nan nan nan nan nan nan nan nan nan nan nan nan nan nan nan 25 26 nan 27 29 28 nan nan nan 29 nan nan nan nan 36 nan nan nan nan nan nan nan nan nan nan nan nan nan nan nan nan nan nan nan nan nan nan nan nan nan nan nan nan nan nan nan nan nan nan nan
nan nan nan nan 12 12 nan nan nan nan nan nan nan nan nan 16 19 nan nan nan nan nan nan nan nan nan nan nan nan nan nan nan nan nan nan nan nan nan nan nan nan nan 33 29 31 31 33 nan nan nan nan 35 nan nan nan nan nan nan nan nan nan nan nan nan nan nan nan nan nan nan nan nan nan nan nan nan nan nan nan nan nan nan nan nan nan nan nan
nan 11 nan nan nan nan nan nan nan nan nan nan 14 nan nan nan nan nan nan nan nan nan nan nan nan nan nan nan nan nan nan nan nan nan nan nan nan nan nan nan 38 nan nan nan 31 30 31 nan nan nan 35 35 nan nan nan nan nan nan nan nan nan nan nan nan nan nan nan nan nan nan nan nan nan nan nan nan nan nan nan nan nan nan nan nan nan nan nan
10 12 11 nan nan nan nan nan nan nan nan nan nan nan nan nan nan nan nan nan nan nan nan nan nan nan nan nan nan nan nan nan nan nan nan nan nan nan nan nan nan nan 38 nan nan nan 36 40 36 36 35 nan nan nan nan nan nan nan nan nan nan nan nan nan nan nan nan nan nan nan nan nan nan nan nan nan nan nan nan nan nan nan nan nan nan nan nan
13 12 12 11 nan 14 nan nan nan nan nan 15 nan nan nan nan nan nan nan nan nan nan nan nan nan nan nan nan nan nan nan nan nan nan nan nan nan nan nan nan nan nan nan nan nan nan nan nan nan nan nan nan nan nan nan nan nan nan nan nan nan nan nan nan nan nan nan nan nan nan nan nan nan nan nan nan nan nan nan nan nan nan nan nan nan nan nan
nan nan nan nan nan nan nan nan nan nan nan nan nan nan nan nan nan nan nan 27 nan nan nan nan nan nan nan nan nan nan nan nan nan nan nan nan nan nan nan nan nan nan nan nan nan nan nan nan nan nan nan nan nan nan nan nan nan nan nan nan nan nan nan nan nan nan nan nan nan nan nan nan nan nan nan nan nan nan nan nan nan nan nan nan nan nan nan
Wind_Direction
nan nan nan nan nan nan nan nan nan nan nan nan nan nan nan nan nan nan nan nan nan nan nan nan nan nan nan 219 233 nan nan 256 259 254 262 270 274 268 257 246 252 255 255 257 264 273 278 273 267 265 267 274 276 280 286 289 288 295 295 301 314 325 327 326 319 311 307 304 304 311 320 324 327 328 327 325 320 317 320 325 326 331 331 331 331 331 330
nan nan nan nan nan nan nan nan nan nan nan nan nan nan nan nan nan nan nan nan nan nan nan nan nan nan 205 216 222 224 nan nan 257 266 259 254 261 270 266 258 257 256 259 258 260 265 269 273 271 267 272 280 283 285 290 294 293 288 287 298 308 321 330 327 310 301 301 298 303 313 316 320 324 321 318 318 317 319 324 328 328 326 327 328 331 333 333
nan nan nan nan nan nan nan nan nan nan nan nan nan nan nan nan nan nan nan nan nan nan nan nan nan nan nan nan nan 223 223 237 256 264 266 254 247 240 238 238 241 244 251 258 260 263 268 271 271 267 270 277 278 280 286 296 299 291 289 295 304 314 326 320 305 297 296 300 302 317 312 308 310 309 310 308 311 314 319 324 325 323 322 326 330 332 332
nan nan nan nan nan nan nan nan nan nan nan nan nan nan nan nan nan nan nan nan nan nan nan nan nan nan nan nan nan nan 222 227 244 248 244 246 252 251 248 246 249 251 257 262 262 265 270 271 272 270 267 268 273 280 287 298 301 291 288 292 300 308 314 309 301 300 299 302 304 305 296 300 301 302 298 300 308 312 313 319 321 319 321 324 327 327 327
nan nan nan nan nan nan nan nan nan nan nan nan nan nan nan nan nan nan nan nan nan nan nan nan nan nan nan nan nan nan nan nan nan 239 244 249 251 252 254 258 259 264 269 270 275 276 272 270 271 276 275 272 276 282 288 293 291 289 290 292 294 297 301 304 303 300 298 300 300 291 291 290 289 292 299 303 307 309 315 316 314 319 321 319 322 323 324
nan nan nan nan nan nan nan nan nan nan nan nan nan nan nan nan nan nan nan nan nan nan nan nan nan nan nan nan nan nan nan nan nan nan 243 231 237 251 261 265 264 260 258 260 265 271 270 270 275 277 276 278 279 281 283 282 288 291 289 289 291 291 293 302 302 296 295 294 290 287 282 282 284 292 300 308 306 305 304 309 315 316 317 317 317 320 322
nan nan nan nan nan nan nan nan nan nan nan nan nan nan nan nan nan nan nan nan 250 nan nan nan nan nan nan 229 215 nan 216 227 234 238 237 237 235 242 247 251 258 262 261 260 264 266 265 265 266 267 270 272 270 270 273 280 286 289 289 289 290 286 290 297 296 290 289 287 284 280 280 280 284 293 300 299 300 302 304 307 310 313 314 312 314 317 319
nan nan nan nan nan nan nan nan nan nan nan nan nan nan nan nan nan 222 228 233 245 246 nan 233 nan nan nan nan nan nan nan nan 231 228 nan nan 232 244 252 262 265 265 259 257 259 262 261 259 258 262 267 266 266 271 276 281 283 285 283 285 288 286 285 289 293 289 285 283 280 277 279 282 287 293 297 300 300 299 299 298 300 303 306 307 310 313 315
nan nan nan nan nan nan nan nan nan nan nan 223 nan nan 221 217 216 222 221 223 227 234 233 235 236 237 240 nan nan nan nan nan nan nan nan nan nan nan 243 254 257 256 257 257 257 256 256 260 262 261 260 262 264 268 273 275 278 279 279 281 285 288 286 285 286 283 279 280 280 280 283 289 292 292 294 296 296 297 297 297 299 301 303 303 304 307 311
nan nan nan nan nan nan nan nan nan nan nan nan nan nan 225 213 213 220 224 224 227 228 229 233 238 nan nan 236 nan 230 221 222 nan nan nan nan nan nan 232 244 247 250 248 248 249 252 254 254 258 258 257 260 263 266 271 271 272 274 277 279 282 284 281 277 276 275 275 277 279 281 285 290 288 286 287 290 294 296 297 297 298 300 300 299 300 304 308
nan nan nan nan nan nan nan 226 nan nan nan nan nan nan 226 220 217 219 223 228 230 229 229 229 236 242 243 241 236 222 221 221 219 nan nan nan nan nan nan 240 247 252 258 259 255 253 251 248 248 251 255 259 262 267 271 271 271 273 273 274 277 281 278 272 269 269 270 273 277 281 284 283 282 285 289 292 292 292 294 295 297 298 298 299 299 302 305
214 nan nan nan nan nan nan nan nan nan 225 nan nan nan 230 229 225 220 224 232 234 236 234 232 235 238 242 238 233 225 224 225 227 228 231 228 221 215 nan nan 238 246 249 253 257 258 256 248 243 245 249 255 262 266 270 272 273 273 272 271 272 272 270 265 262 263 265 271 275 279 280 279 280 284 285 287 290 291 292 293 295 296 296 298 301 303 303
nan nan nan nan nan 227 228 228 232 234 230 231 nan nan 237 237 236 230 233 236 239 239 239 237 238 233 237 237 238 231 226 228 227 226 236 242 239 230 222 223 227 nan 242 250 258 263 260 253 247 248 253 259 263 264 266 269 273 275 270 264 263 265 265 262 260 262 262 268 275 277 278 279 280 283 285 286 286 288 289 290 293 294 296 299 300 302 302
nan nan nan nan nan 219 226 231 224 226 234 nan nan 232 234 239 240 239 236 236 235 237 238 239 239 234 230 230 233 232 229 230 231 227 226 235 243 246 242 230 224 224 231 241 251 260 261 260 258 257 259 262 261 259 261 264 266 265 263 261 260 261 262 260 258 260 262 265 271 273 274 277 280 280 280 282 283 286 288 292 295 296 297 300 302 305 307
nan nan nan 212 nan 218 220 226 226 224 227 228 233 236 236 237 239 239 237 235 235 236 236 236 237 233 230 232 234 234 231 231 230 230 231 228 224 234 246 242 234 231 224 230 243 252 258 262 262 262 265 265 258 256 260 259 254 256 259 259 258 258 258 256 255 257 261 266 267 268 271 275 278 278 279 280 282 286 291 294 296 296 298 302 306 309 312
196 nan nan nan nan nan nan nan 228 226 230 231 232 238 237 236 237 239 239 236 234 235 237 234 232 229 227 229 232 234 232 230 230 230 232 231 230 229 233 237 231 227 226 222 225 237 246 249 252 253 259 259 255 253 253 247 247 251 254 255 254 253 251 250 251 254 259 262 263 265 269 272 274 276 278 279 282 287 291 291 292 295 299 304 308 311 313
207 203 201 198 193 217 222 224 227 230 230 230 234 236 236 238 238 239 239 236 233 233 238 238 234 232 228 229 231 234 232 233 233 233 234 236 234 235 233 233 235 238 234 226 220 219 231 244 247 249 247 250 252 254 246 242 245 249 251 252 252 249 248 247 249 252 255 257 260 263 265 270 272 274 277 280 282 286 287 287 290 296 300 303 307 310 310
209 208 212 205 199 211 228 226 225 230 231 230 231 235 236 235 237 237 238 237 235 236 236 239 237 236 233 232 231 231 230 231 232 234 234 234 235 234 234 233 237 240 238 237 230 222 223 230 235 236 238 242 249 250 245 239 239 242 246 248 248 247 245 245 247 250 252 253 256 259 261 264 268 271 277 280 282 283 284 286 290 294 298 302 305 306 306
nan 211 211 207 208 215 221 229 230 230 233 234 233 234 234 236 237 237 236 237 237 237 236 236 237 236 234 236 235 234 232 232 235 237 236 236 236 238 236 236 237 241 248 247 244 235 230 224 229 233 233 230 234 239 238 235 235 238 242 245 245 244 244 244 245 248 251 252 255 258 261 264 269 272 275 278 280 281 283 286 289 294 298 301 302 303 303
215 211 211 211 218 nan 223 225 229 233 236 238 238 238 237 237 nan 239 237 236 236 236 238 236 236 235 233 234 236 237 237 237 240 241 240 238 240 240 240 239 238 243 244 249 251 250 244 233 230 234 232 226 224 230 234 232 232 237 240 242 244 243 242 241 243 246 248 255 257 259 262 267 271 273 275 278 281 283 285 287 290 292 295 298 300 301 301
209 209 205 216 225 nan nan 225 225 228 231 nan 237 238 239 nan nan nan nan nan nan nan nan 235 236 238 236 237 239 239 240 241 243 244 247 245 243 243 242 240 239 241 250 252 252 257 257 248 235 240 243 241 235 236 232 228 230 235 238 240 241 241 239 240 242 246 250 253 255 258 259 258 258 263 272 278 277 276 275 278 284 289 293 296 299 299 299
207 211 211 221 nan nan nan 225 223 228 nan nan nan nan nan nan nan nan nan nan nan nan nan 235 236 239 239 239 239 240 240 241 243 246 247 248 248 247 246 245 241 244 244 247 246 252 253 249 242 240 240 240 239 239 231 219 220 226 228 230 234 235 237 241 246 249 251 253 256 258 261 263 265 263 258 260 269 279 280 279 283 291 295 296 299 300 300
202 209 211 219 230 234 229 227 224 226 233 nan nan nan nan nan nan nan nan nan nan nan 236 237 238 239 239 238 240 241 241 240 243 245 246 247 250 250 248 247 245 244 243 248 252 248 244 241 239 237 234 236 239 242 238 227 226 228 231 225 225 231 239 244 248 251 253 254 255 257 260 263 266 268 267 263 260 261 267 275 283 288 293 298 301 304 305
195 211 214 222 nan nan 227 225 227 228 nan nan nan nan nan nan nan nan nan 238 240 240 239 238 239 242 243 241 240 243 243 243 244 245 247 249 248 248 253 253 249 248 247 245 245 244 244 246 249 245 235 232 236 243 247 236 226 226 227 230 231 236 241 246 250 251 254 257 259 261 262 265 268 270 271 271 266 262 264 272 278 281 283 286 295 301 303
202 219 230 nan nan nan nan nan nan nan nan nan nan nan nan nan nan nan nan nan nan 242 242 241 240 241 243 244 243 244 246 248 250 249 249 248 247 246 251 259 259 257 255 253 248 242 239 246 252 241 234 237 240 240 231 225 219 224 229 234 240 244 247 250 251 254 256 258 260 263 267 269 271 273 274 274 274 275 273 275 279 281 282 284 284 287 294
215 237 246 nan 234 nan nan nan nan nan nan nan nan nan nan nan nan nan nan nan nan nan nan nan nan 240 241 245 246 246 248 250 250 249 247 245 243 244 248 255 265 274 268 246 231 235 237 226 223 224 225 232 233 224 218 217 222 228 232 237 243 247 248 249 251 253 254 255 257 260 263 265 267 269 271 275 280 284 287 288 285 284 283 279 279 283 285
230 239 nan nan nan nan nan 233 232 nan nan nan nan nan nan nan nan nan nan nan nan nan nan nan nan nan nan nan nan nan 253 252 250 247 246 243 242 245 246 249 256 267 280 276 258 245 237 228 208 203 208 214 215 214 215 220 226 233 239 243 245 251 256 254 255 256 257 259 261 262 263 264 266 270 273 279 284 287 290 292 294 295 295 287 280 280 289
nan nan nan nan nan nan nan nan nan nan nan nan nan nan nan nan nan nan nan nan nan nan nan nan nan nan nan nan nan nan nan nan 250 246 245 246 245 244 245 248 253 255 253 251 252 251 246 238 229 218 213 216 220 223 228 231 235 242 246 247 248 249 251 254 254 256 259 261 263 265 266 267 270 275 280 283 284 285 285 288 293 294 291 288 290 287 285
nan nan nan nan nan nan nan nan nan nan nan nan nan nan nan nan nan nan nan nan nan nan nan nan nan nan nan nan nan nan nan nan nan nan nan 249 247 243 244 248 252 253 254 252 252 251 249 246 242 234 229 226 225 224 227 233 237 241 244 246 248 250 253 255 257 259 259 260 261 263 265 269 276 280 281 282 282 283 284 289 292 292 292 294 294 290 289
nan nan nan nan nan nan nan nan nan nan nan nan nan nan nan nan nan nan nan nan nan nan nan nan nan nan nan nan nan nan nan nan nan nan nan nan nan nan 242 243 245 246 248 249 247 244 239 236 237 237 233 233 229 227 229 231 234 237 243 246 248 251 254 256 257 260 262 262 264 267 267 271 276 278 278 280 282 283 286 288 291 292 294 295 295 297 297
nan nan nan nan nan nan nan nan nan nan nan nan nan nan nan nan nan nan nan nan nan nan nan nan nan nan nan nan nan nan nan nan nan nan nan nan nan nan nan nan 241 241 242 243 243 239 236 233 231 230 227 232 237 236 235 237 240 241 242 244 246 251 258 261 259 260 262 265 268 270 271 275 278 279 279 280 281 281 284 287 nan nan nan 294 294 296 296
nan nan nan nan nan nan nan nan nan nan nan nan nan nan nan nan nan nan nan nan nan nan nan nan nan nan nan nan nan nan nan nan nan nan nan nan nan nan nan nan nan nan nan nan 239 237 236 235 233 230 233 233 236 242 243 242 241 245 248 250 253 255 259 261 256 259 262 267 269 271 274 276 278 279 280 281 282 282 285 nan nan nan nan nan nan nan 296
nan nan nan nan nan nan nan nan nan nan nan nan nan nan nan nan nan nan nan nan nan nan nan nan nan nan nan nan nan nan nan nan nan nan nan nan nan nan nan nan nan nan nan nan nan nan 236 236 234 233 233 235 237 239 244 247 249 251 252 253 256 259 258 257 260 260 262 265 269 272 275 276 277 280 282 281 281 282 nan nan nan nan nan nan nan nan nan
nan nan nan nan nan nan nan nan nan nan nan nan nan nan nan nan nan nan nan nan nan nan nan nan nan nan nan nan nan nan nan nan nan nan nan nan nan nan nan nan nan nan nan 236 nan nan nan 232 233 234 234 231 234 237 243 244 244 243 247 250 253 256 258 260 262 263 264 265 269 274 273 273 277 279 279 280 nan nan nan nan nan nan nan nan nan nan nan
nan nan nan nan nan nan nan nan nan nan nan nan nan nan nan nan nan nan nan nan nan nan nan nan nan nan nan nan nan nan nan nan nan nan nan nan nan nan nan nan nan nan nan nan nan nan nan 226 229 231 236 236 234 237 243 249 250 246 245 249 251 255 258 259 261 263 265 265 267 270 nan nan nan 274 274 nan nan nan nan nan 291 291 nan nan nan nan nan
nan nan nan nan nan nan nan nan nan nan nan nan nan nan nan nan nan nan nan nan nan nan nan nan nan nan nan nan nan nan nan nan nan nan nan nan nan nan nan nan nan nan 246 241 237 235 235 233 230 235 236 238 239 238 243 249 250 252 249 254 256 258 257 259 262 262 264 265 264 265 268 266 264 nan 266 272 281 283 nan nan nan nan nan nan nan nan nan
nan nan nan nan nan nan nan nan nan nan nan nan nan nan nan nan nan nan nan nan nan nan nan nan nan nan nan nan nan nan nan nan nan nan nan nan nan nan nan nan 248 251 255 nan nan 252 250 248 244 245 249 252 253 250 248 261 263 263 263 260 258 262 267 267 266 266 262 260 260 263 266 269 273 nan nan nan nan nan nan nan nan nan nan nan nan nan nan
nan nan nan nan nan nan nan nan nan nan nan nan nan nan nan nan nan nan nan nan nan nan nan nan nan nan nan nan nan nan nan nan nan nan 246 nan nan nan nan nan nan nan nan nan 257 258 257 253 248 248 249 252 254 254 251 258 268 265 264 265 265 263 263 268 268 264 259 257 260 264 263 262 268 271 274 nan nan nan nan nan nan nan nan nan nan nan nan
nan nan nan nan nan nan nan nan nan nan nan nan nan nan nan nan nan nan nan nan nan nan nan nan nan nan nan nan nan nan nan nan nan nan 249 249 249 nan nan nan 254 254 255 255 255 256 257 257 258 256 255 254 255 254 253 258 265 264 266 267 265 264 262 259 261 262 264 266 267 268 268 265 266 274 nan nan nan nan nan nan nan nan nan nan nan nan nan
nan nan nan nan nan nan nan nan nan nan nan nan nan nan nan nan nan nan nan nan nan 243 nan nan nan nan nan nan nan nan nan nan nan 251 nan nan nan nan nan nan nan 253 254 253 255 256 255 255 258 258 256 256 253 250 249 248 251 254 255 256 257 260 259 260 262 264 268 268 268 270 273 280 279 nan nan nan nan nan nan nan nan nan nan nan nan nan nan
nan nan nan nan nan nan nan nan nan nan nan nan nan nan nan nan nan nan nan 251 250 250 nan nan nan nan nan nan nan nan nan nan 249 249 250 251 251 nan nan nan nan nan nan 253 255 255 255 255 253 252 249 249 247 250 249 245 242 241 242 250 255 254 257 256 258 262 264 265 267 nan nan nan nan nan nan nan nan nan nan nan nan nan nan nan nan nan nan
nan 253 252 nan nan nan nan nan nan nan nan nan nan nan nan nan 257 259 260 259 258 259 260 259 256 254 251 nan nan nan nan nan nan 251 251 251 250 250 nan nan nan nan 248 250 251 251 251 251 248 247 245 244 241 247 250 251 251 250 nan nan 251 254 255 259 259 258 nan nan nan nan nan nan nan nan nan nan nan nan nan nan nan nan nan nan nan nan nan
nan nan nan nan nan nan nan nan nan nan nan nan nan nan nan nan 260 262 nan nan nan nan 261 260 259 258 257 nan nan nan 257 nan nan 254 255 255 255 254 254 253 252 253 247 250 250 248 245 244 243 243 238 236 236 238 242 250 261 nan nan nan nan nan 271 270 nan nan nan nan nan nan nan nan nan nan nan nan nan nan nan nan nan nan nan nan nan nan nan
nan nan nan nan nan nan nan nan nan nan nan nan 258 nan nan nan nan nan nan nan nan nan nan nan 266 266 265 nan 262 260 nan nan 257 256 257 256 nan nan 252 252 248 245 245 248 nan nan nan nan nan 236 231 225 230 238 nan nan nan nan 252 nan nan nan nan nan 261 260 257 nan nan nan nan nan nan nan nan nan nan nan nan nan nan nan nan nan nan nan nan
nan nan nan nan nan nan nan nan nan nan nan nan nan nan 252 nan nan nan nan 258 262 nan nan nan nan nan nan nan nan 259 263 262 260 257 255 nan nan nan nan 246 242 241 243 245 nan nan nan nan nan 233 231 228 229 234 nan nan nan nan 249 nan nan nan nan nan nan nan nan nan nan nan nan nan nan nan nan nan nan nan nan nan nan nan nan nan nan nan nan
nan nan 229 241 nan nan nan nan nan nan nan nan nan nan nan nan nan 248 249 nan nan nan nan nan nan nan nan nan nan nan nan nan nan 254 254 254 252 nan 244 242 244 243 242 242 nan nan 244 240 nan nan nan 230 232 nan nan nan 251 nan nan nan nan nan nan nan nan nan nan nan nan nan nan nan nan nan nan nan nan nan nan nan nan nan nan nan nan nan nan
nan nan nan nan 242 239 238 nan nan nan nan nan nan nan nan nan nan nan nan nan nan nan nan nan nan nan nan nan nan nan nan nan nan nan nan nan nan 245 241 nan 233 242 249 nan nan nan 246 nan nan nan nan 234 nan nan nan nan nan nan nan nan nan nan nan nan nan nan nan nan nan nan nan nan nan nan nan nan nan nan nan nan nan nan nan nan nan nan nan
nan nan nan nan 250 249 nan nan nan nan nan nan nan nan nan 249 253 nan nan nan nan nan nan nan nan nan nan nan nan nan nan nan nan nan nan nan nan nan nan nan nan nan 240 252 247 246 243 nan nan nan nan 239 nan nan nan nan nan nan nan nan nan nan nan nan nan nan nan nan nan nan nan nan nan nan nan nan nan nan nan nan nan nan nan nan nan nan nan
nan 237 nan nan nan nan nan nan nan nan nan nan 247 nan nan nan nan nan nan nan nan nan nan nan nan nan nan nan nan nan nan nan nan nan nan nan nan nan nan nan 241 nan nan nan 248 249 244 nan nan nan 240 244 nan nan nan nan nan nan nan nan nan nan nan nan nan nan nan nan nan nan nan nan nan nan nan nan nan nan nan nan nan nan nan nan nan nan nan
250 254 254 nan nan nan nan nan nan nan nan nan nan nan nan nan nan nan nan nan nan nan nan nan nan nan nan nan nan nan nan nan nan nan nan nan nan nan nan nan nan nan 242 nan nan nan 244 240 243 242 244 nan nan nan nan nan nan nan nan nan nan nan nan nan nan nan nan nan nan nan nan nan nan nan nan nan nan nan nan nan nan nan nan nan nan nan nan
263 270 277 278 nan 262 nan nan nan nan nan 258 nan nan nan nan nan nan nan nan nan nan nan nan nan nan nan nan nan nan nan nan nan nan nan nan nan nan nan nan nan nan nan nan nan nan nan nan nan nan nan nan nan nan nan nan nan nan nan nan nan nan nan nan nan nan nan nan nan nan nan nan nan nan nan nan nan nan nan nan nan nan nan nan nan nan nan
nan nan nan nan nan nan nan nan nan nan nan nan nan nan nan nan nan nan nan 260 nan nan nan nan nan nan nan nan nan nan nan nan nan nan nan nan nan nan nan nan nan nan nan nan nan nan nan nan nan nan nan nan nan nan nan nan nan nan nan nan nan nan nan nan nan nan nan nan nan nan nan nan nan nan nan nan nan nan nan nan nan nan nan nan nan nan nan